FW7227 Weather Reports


time (UTC)temp
F
wind
direction
speed
knots
gust
knots
rain 1hr
in
rain 24hr
in
rain mn
in
humidity
%
barometer
mb
20220930151620 59 360 1.7 7.0 0.00 0.00 0.00 52 1010.3
20220930151054 60 360 2.6 9.6 0.00 0.00 0.00 51 1010.2
20220930150559 60 360 2.6 9.6 0.00 0.00 0.00 51 1010.2
20220930150127 60 360 4.3 9.6 0.00 0.00 0.00 50 1010.2
20220930145558 61 360 1.7 9.6 0.00 0.00 0.00 49 1010.3
20220930145055 61 360 3.5 9.6 0.00 0.00 0.00 48 1010.3
20220930144605 61 360 3.5 9.6 0.00 0.00 0.00 48 1010.3
20220930144055 61 360 1.7 10.4 0.00 0.00 0.00 50 1010.2
20220930143559 61 360 3.5 11.3 0.00 0.00 0.00 47 1010.2
20220930143118 62 360 1.7 11.3 0.00 0.00 0.00 48 1010.2
20220930142554 62 360 5.2 11.3 0.00 0.00 0.00 46 1010.3
20220930142056 62 360 3.5 11.3 0.00 0.00 0.00 46 1010.2
20220930141607 62 360 2.6 10.4 0.00 0.00 0.00 48 1010.2
20220930141058 62 360 3.5 7.8 0.00 0.00 0.00 48 1010.1
20220930140556 62 360 3.5 8.7 0.00 0.00 0.00 50 1010.2
20220930140112 62 360 4.3 8.7 0.00 0.00 0.00 48 1010.1
20220930135600 62 360 4.3 10.4 0.00 0.00 0.00 49 1010.2
20220930135054 63 360 3.5 10.4 0.00 0.00 0.00 49 1010.2
20220930134602 63 360 0.9 9.6 0.00 0.00 0.00 50 1010.2
20220930134055 62 360 2.6 9.6 0.00 0.00 0.00 52 1010.2
20220930133556 62 360 5.2 11.3 0.00 0.00 0.00 50 1010.2
20220930133058 62 360 7.0 11.3 0.00 0.00 0.00 48 1010.2
20220930132555 62 360 3.5 8.7 0.00 0.00 0.00 49 1010.2
20220930132059 62 360 3.5 8.7 0.00 0.00 0.00 49 1010.2
20220930131610 62 360 2.6 8.7 0.00 0.00 0.00 49 1010.3
20220930131056 62 360 3.5 8.7 0.00 0.00 0.00 49 1010.3
20220930130558 62 360 4.3 9.6 0.00 0.00 0.00 49 1010.3
20220930130105 62 360 5.2 10.4 0.00 0.00 0.00 49 1010.3
20220930125559 62 360 3.5 10.4 0.00 0.00 0.00 51 1010.3
20220930125054 62 248 6.1 10.4 0.00 0.00 0.00 51 1010.4
20220930124601 62 360 4.3 9.6 0.00 0.00 0.00 53 1010.4
20220930124054 62 360 3.5 8.7 0.00 0.00 0.00 53 1010.3
20220930123554 62 360 5.2 10.4 0.00 0.00 0.00 51 1010.4
20220930123103 62 360 5.2 10.4 0.00 0.00 0.00 53 1010.5
20220930122559 62 0 0.9 11.3 0.00 0.00 0.00 55 1010.4
20220930122058 62 360 4.3 11.3 0.00 0.00 0.00 54 1010.4
20220930121559 62 360 5.2 9.6 0.00 0.00 0.00 54 1010.4
20220930121055 62 360 2.6 9.6 0.00 0.00 0.00 54 1010.4
20220930120558 62 360 4.3 10.4 0.00 0.00 0.00 56 1010.4
20220930120107 62 360 2.6 10.4 0.00 0.00 0.00 55 1010.3
20220930115554 62 360 1.7 7.0 0.00 0.00 0.00 56 1010.3
20220930115055 61 360 0.9 7.8 0.00 0.00 0.00 56 1010.4
20220930114600 61 319 1.7 9.6 0.00 0.00 0.00 54 1010.3
20220930114055 61 360 2.6 9.6 0.00 0.00 0.00 55 1010.3
20220930113600 61 360 2.6 7.8 0.00 0.00 0.00 57 1010.3
20220930113105 61 360 2.6 8.7 0.00 0.00 0.00 56 1010.3
20220930112558 61 360 4.3 8.7 0.00 0.00 0.00 55 1010.4
20220930112102 61 360 4.3 10.4 0.00 0.00 0.00 55 1010.4
20220930111603 62 0 1.7 10.4 0.00 0.00 0.00 56 1010.4
20220930111058 62 360 4.3 7.8 0.00 0.00 0.00 55 1010.4
20220930110558 62 360 3.5 7.8 0.00 0.00 0.00 56 1010.5
20220930110107 62 345 1.7 7.8 0.00 0.00 0.00 56 1010.5
20220930105558 62 360 2.6 9.6 0.00 0.00 0.00 56 1010.6
20220930105100 62 360 3.5 9.6 0.00 0.00 0.00 58 1010.7
20220930104603 62 360 1.7 8.7 0.00 0.00 0.00 59 1010.7
20220930104056 61 360 3.5 8.7 0.00 0.00 0.00 61 1010.6
20220930103602 61 360 2.6 7.8 0.00 0.00 0.00 58 1010.6
20220930103137 60 0 2.6 7.0 0.00 0.00 0.00 61 1010.6
20220930102559 60 209 1.7 6.1 0.00 0.00 0.00 62 1010.5
20220930102057 60 202 2.6 5.2 0.00 0.00 0.00 61 1010.5
20220930101609 59 360 0.0 4.3 0.00 0.00 0.00 67 1010.6
20220930101056 59 193 1.7 7.0 0.00 0.00 0.00 66 1010.6
20220930100554 59 360 0.9 7.0 0.00 0.00 0.00 65 1010.6
20220930100104 59 360 0.0 4.3 0.00 0.00 0.00 67 1010.7
20220930095556 58 360 0.9 4.3 0.00 0.00 0.00 69 1010.7
20220930095054 58 360 0.0 3.5 0.00 0.00 0.00 69 1010.7
20220930094608 58 216 0.0 3.5 0.00 0.00 0.00 68 1010.8
20220930094054 58 186 0.9 3.5 0.00 0.00 0.00 69 1010.8
20220930093554 57 204 0.9 3.5 0.00 0.00 0.00 70 1010.8
20220930093103 57 208 0.0 3.5 0.00 0.00 0.00 71 1010.9
20220930092554 56 0 0.9 5.2 0.00 0.00 0.00 73 1010.9
20220930092057 56 207 2.6 5.2 0.00 0.00 0.00 73 1010.9
20220930091610 56 202 1.7 4.3 0.00 0.00 0.00 73 1010.9
20220930091105 55 209 0.0 3.5 0.00 0.00 0.00 73 1010.9
20220930090557 55 199 0.9 3.5 0.00 0.00 0.00 74 1010.9
20220930090107 54 0 0.0 2.6 0.00 0.00 0.00 76 1010.8
20220930085601 54 0 0.0 3.5 0.00 0.00 0.00 75 1010.8
20220930085059 54 227 0.0 3.5 0.00 0.00 0.00 76 1010.8
20220930084607 53 0 0.9 4.3 0.00 0.00 0.00 77 1010.8
20220930084057 53 0 0.9 4.3 0.00 0.00 0.00 79 1010.6
20220930083557 52 0 1.7 4.3 0.00 0.00 0.00 80 1010.6
20220930083106 52 172 1.7 4.3 0.00 0.00 0.00 79 1010.6
20220930082555 51 360 0.9 3.5 0.00 0.00 0.00 82 1010.5
20220930082054 51 360 0.9 3.5 0.00 0.00 0.00 83 1010.4
20220930081600 50 0 0.0 2.6 0.00 0.00 0.00 83 1010.5
20220930081056 50 0 0.0 2.6 0.00 0.00 0.00 84 1010.5
20220930080600 49 360 0.9 2.6 0.00 0.00 0.00 85 1010.6
20220930080101 49 360 0.0 2.6 0.00 0.00 0.00 86 1010.6
20220930075557 48 0 0.9 2.6 0.00 0.00 0.00 86 1010.5
20220930075057 48 360 0.0 2.6 0.00 0.00 0.00 88 1010.4
20220930074603 47 360 0.0 2.6 0.00 0.00 0.00 89 1010.3
20220930074059 46 360 0.0 2.6 0.00 0.00 0.00 90 1010.4
20220930073556 46 0 0.0 3.5 0.00 0.00 0.00 90 1010.3
20220930073058 45 360 0.9 3.5 0.00 0.00 0.00 92 1010.3
20220930072558 45 360 0.9 3.5 0.00 0.00 0.00 91 1010.2
20220930072058 44 360 0.0 3.5 0.00 0.00 0.00 92 1010.2
20220930071559 44 0 0.9 3.5 0.00 0.00 0.00 92 1010.3
20220930071101 43 360 0.9 4.3 0.00 0.00 0.00 93 1010.2
20220930070557 43 360 0.0 5.2 0.00 0.00 0.00 94 1010.1
20220930070105 43 360 1.7 5.2 0.00 0.00 0.00 93 1010.0
20220930065555 42 360 0.0 4.3 0.00 0.00 0.00 94 1010.0
20220930065057 42 360 1.7 7.0 0.00 0.00 0.00 94 1009.9
20220930064601 42 360 1.7 7.0 0.00 0.00 0.00 95 1009.9
20220930064055 41 360 2.6 7.0 0.00 0.00 0.00 95 1009.8
20220930063554 41 360 2.6 7.8 0.00 0.00 0.00 96 1009.8
20220930063103 41 360 2.6 7.8 0.00 0.00 0.00 96 1009.8
20220930062558 40 360 1.7 5.2 0.00 0.00 0.00 97 1009.8
20220930062053 40 360 1.7 5.2 0.00 0.00 0.00 96 1009.7
20220930061605 40 360 0.9 7.0 0.00 0.00 0.00 97 1009.7
20220930061057 40 0 1.7 7.0 0.00 0.00 0.00 97 1009.7
20220930060553 39 360 0.9 5.2 0.00 0.00 0.00 96 1009.6
20220930060119 39 360 0.9 5.2 0.00 0.00 0.00 97 1009.7
20220930055554 38 360 0.9 4.3 0.00 0.00 0.00 96 1009.6
20220930055056 38 360 0.9 4.3 0.00 0.00 0.00 96 1009.5
20220930054606 37 360 0.0 4.3 0.00 0.00 0.00 96 1009.4
20220930054059 37 170 0.0 2.6 0.00 0.00 0.00 95 1009.3
20220930053557 37 0 0.0 1.7 0.00 0.00 0.00 94 1009.2
20220930053057 37 0 0.0 1.7 0.00 0.00 0.00 94 1009.1
20220930052559 37 0 0.0 0.9 0.00 0.00 0.00 93 1009.0
20220930052057 37 0 0.0 0.0 0.00 0.00 0.00 94 1009.0
20220930051601 37 0 0.0 0.0 0.00 0.00 0.00 94 1009.1
20220930051054 37 0 0.0 0.0 0.00 0.00 0.00 94 1009.0
20220930050557 37 0 0.0 0.9 0.00 0.00 0.00 94 1008.9
20220930050106 37 0 0.0 0.9 0.00 0.00 0.00 94 1008.7
20220930045554 37 0 0.0 0.9 0.00 0.00 0.00 94 1008.6
20220930045054 37 0 0.0 0.9 0.00 0.00 0.00 94 1008.6
20220930044603 37 0 0.0 0.9 0.00 0.00 0.00 93 1008.6
20220930044054 37 0 0.0 0.9 0.00 0.00 0.00 93 1008.4
20220930043554 37 0 0.0 0.9 0.00 0.00 0.00 93 1008.3
20220930043108 37 0 0.0 0.9 0.00 0.00 0.00 93 1008.4
20220930042556 37 0 0.0 0.9 0.00 0.00 0.00 93 1008.4
20220930042100 37 0 0.0 0.9 0.00 0.00 0.00 93 1008.3
20220930041559 37 0 0.0 0.9 0.00 0.00 0.00 93 1008.2
20220930041056 37 360 0.0 0.9 0.00 0.00 0.00 92 1008.2
20220930040559 37 0 0.0 0.0 0.00 0.00 0.00 92 1008.3
20220930040110 37 0 0.0 0.0 0.00 0.00 0.00 92 1008.3
20220930035556 37 0 0.0 0.0 0.00 0.00 0.00 92 1008.2
20220930035057 37 0 0.0 0.0 0.00 0.00 0.00 92 1008.2
20220930034601 37 0 0.0 0.9 0.00 0.00 0.00 92 1008.1
20220930034056 38 0 0.0 0.9 0.00 0.00 0.00 92 1008.1
20220930033555 38 0 0.0 0.9 0.00 0.00 0.00 92 1008.0
20220930033121 38 0 0.0 0.0 0.00 0.00 0.00 92 1008.1
20220930032556 38 0 0.0 0.0 0.00 0.00 0.00 92 1007.9
20220930032103 38 0 0.0 0.0 0.00 0.00 0.00 92 1008.0
20220930031600 38 0 0.0 0.0 0.00 0.00 0.00 92 1007.9
20220930031055 38 0 0.0 0.0 0.00 0.00 0.00 92 1007.9
20220930030555 38 0 0.0 0.0 0.00 0.00 0.00 92 1007.8
20220930030101 38 0 0.0 0.0 0.00 0.00 0.00 92 1007.7
20220930025556 38 0 0.0 0.9 0.00 0.00 0.00 93 1007.8
20220930025056 38 0 0.0 0.9 0.00 0.00 0.00 93 1007.7
20220930024558 38 0 0.0 0.9 0.00 0.00 0.00 92 1007.8
20220930024056 38 0 0.0 1.7 0.00 0.00 0.00 92 1007.8
20220930023600 39 360 0.0 1.7 0.00 0.00 0.00 92 1007.8
20220930023207 39 360 0.0 0.0 0.00 0.00 0.00 92 1007.8
20220930022556 39 0 0.0 0.0 0.00 0.00 0.00 92 1007.7
20220930022055 39 0 0.0 0.0 0.00 0.00 0.00 92 1007.8
20220930021600 39 0 0.0 0.0 0.00 0.00 0.00 92 1007.8
20220930021057 39 0 0.0 0.0 0.00 0.00 0.00 92 1007.8
20220930020557 39 0 0.0 0.0 0.00 0.00 0.00 92 1007.7
20220930020059 39 0 0.0 0.0 0.00 0.00 0.00 92 1007.7
20220930015555 39 0 0.0 0.9 0.00 0.00 0.00 92 1007.7
20220930015058 40 0 0.0 0.9 0.00 0.00 0.00 92 1007.7
20220930014606 40 0 0.0 0.9 0.00 0.00 0.00 92 1007.6
20220930014105 40 0 0.0 0.9 0.00 0.00 0.00 92 1007.6
20220930013555 40 0 0.0 0.9 0.00 0.00 0.00 93 1007.6
20220930013100 40 0 0.0 0.0 0.00 0.00 0.00 93 1007.6
20220930012558 40 0 0.0 0.0 0.00 0.00 0.00 93 1007.7
20220930012056 40 0 0.0 0.9 0.00 0.00 0.00 93 1007.6
20220930011559 40 0 0.0 0.9 0.00 0.00 0.00 93 1007.5
20220930011055 40 0 0.0 0.9 0.00 0.00 0.00 93 1007.6
20220930010554 40 0 0.0 1.7 0.00 0.00 0.00 93 1007.6
20220930010104 41 0 0.0 1.7 0.00 0.00 0.00 93 1007.6
20220930005558 41 0 0.0 1.7 0.00 0.00 0.00 92 1007.6
20220930005055 41 0 0.0 1.7 0.00 0.00 0.00 92 1007.6
20220930004559 41 0 0.0 0.9 0.00 0.00 0.00 93 1007.6
20220930004058 41 0 0.0 0.9 0.00 0.00 0.00 93 1007.6
20220930003555 41 0 0.0 0.9 0.00 0.00 0.00 93 1007.6
20220930003101 41 0 0.0 0.9 0.00 0.00 0.00 93 1007.6
20220930002556 41 0 0.0 0.9 0.00 0.00 0.00 93 1007.6
20220930002056 42 0 0.0 0.9 0.00 0.00 0.00 94 1007.5
20220930001602 42 0 0.0 0.9 0.00 0.00 0.00 94 1007.5
20220930001100 42 0 0.0 0.9 0.00 0.00 0.00 94 1007.5
20220930000602 42 0 0.0 2.6 0.00 0.00 0.00 94 1007.5
20220930000104 42 0 0.0 2.6 0.00 0.00 0.00 94 1007.4
20220929235555 41 0 0.0 3.5 0.00 0.00 0.00 95 1007.3
20220929235056 41 0 0.0 3.5 0.00 0.00 0.00 95 1007.4
20220929234603 41 360 0.0 4.3 0.00 0.00 0.00 95 1007.3
20220929234056 41 0 0.9 4.3 0.00 0.00 0.00 95 1007.3
20220929233555 40 360 0.9 4.3 0.00 0.00 0.00 94 1007.3
20220929233102 40 360 0.0 4.3 0.00 0.00 0.00 94 1007.2
20220929232605 40 360 0.9 4.3 0.00 0.00 0.00 92 1007.2
20220929232057 40 360 0.0 2.6 0.00 0.00 0.00 90 1007.1
20220929231720 40 0 0.0 0.9 0.00 0.00 0.00 89 1007.1
20220929231056 40 0 0.0 0.9 0.00 0.00 0.00 90 1007.0
20220929230556 40 0 0.0 0.9 0.00 0.00 0.00 89 1007.0
20220929230106 40 360 0.0 0.0 0.00 0.00 0.00 89 1006.9
20220929225555 40 0 0.0 0.0 0.00 0.00 0.00 89 1006.8
20220929225055 40 0 0.0 0.0 0.00 0.00 0.00 89 1006.8
20220929224600 40 0 0.0 0.0 0.00 0.00 0.00 89 1006.8
20220929224056 41 0 0.0 0.0 0.00 0.00 0.00 90 1006.7
20220929223556 41 0 0.0 0.0 0.00 0.00 0.00 90 1006.8
20220929223101 41 0 0.0 0.0 0.00 0.00 0.00 89 1006.8
20220929222556 41 0 0.0 0.0 0.00 0.00 0.00 89 1006.8
20220929222058 41 0 0.0 0.0 0.00 0.00 0.00 89 1006.8
20220929221602 41 0 0.0 0.0 0.00 0.00 0.00 89 1006.8
20220929221057 41 0 0.0 0.0 0.00 0.00 0.00 89 1006.8
20220929220555 41 0 0.0 0.0 0.00 0.00 0.00 89 1006.7
20220929220141 41 0 0.0 0.9 0.00 0.00 0.00 89 1006.7
20220929215556 42 0 0.0 0.9 0.00 0.00 0.00 89 1006.8
20220929215055 42 0 0.0 0.9 0.00 0.00 0.00 88 1006.7
20220929214610 42 0 0.0 0.9 0.00 0.00 0.00 88 1006.6
20220929214058 42 0 0.0 0.9 0.00 0.00 0.00 88 1006.6
20220929213555 42 0 0.0 0.9 0.00 0.00 0.00 88 1006.6
20220929213131 42 0 0.0 0.9 0.00 0.00 0.00 88 1006.5
20220929212559 43 0 0.0 0.9 0.00 0.00 0.00 88 1006.5
20220929212057 43 0 0.0 0.9 0.00 0.00 0.00 88 1006.4
20220929211620 43 0 0.0 0.9 0.00 0.00 0.00 87 1006.4
20220929211056 43 360 0.0 0.9 0.00 0.00 0.00 87 1006.3
20220929210558 43 0 0.0 0.9 0.00 0.00 0.00 87 1006.2
20220929210102 43 0 0.0 0.0 0.00 0.00 0.00 87 1006.1
20220929205602 44 0 0.0 0.9 0.00 0.00 0.00 87 1006.1
20220929205058 44 0 0.0 0.9 0.00 0.00 0.00 87 1006.1
20220929204601 44 360 0.0 0.0 0.00 0.00 0.00 87 1006.1
20220929204055 44 0 0.0 0.9 0.00 0.00 0.00 87 1006.0
20220929203555 44 0 0.0 0.9 0.00 0.00 0.00 86 1006.0
20220929203115 45 0 0.0 0.9 0.00 0.00 0.00 86 1005.9
20220929202559 45 0 0.0 0.9 0.00 0.00 0.00 86 1005.9
20220929202055 45 0 0.0 1.7 0.00 0.00 0.00 86 1005.9
20220929201611 45 0 0.0 1.7 0.00 0.00 0.00 86 1005.8
20220929201058 45 0 0.0 1.7 0.00 0.00 0.00 86 1005.8
20220929200557 46 0 0.0 1.7 0.00 0.00 0.00 86 1005.8
20220929200115 46 0 0.0 1.7 0.00 0.00 0.00 86 1005.7
20220929195557 46 360 0.0 1.7 0.00 0.00 0.00 87 1005.7
20220929195059 46 0 0.0 2.6 0.00 0.00 0.00 87 1005.7
20220929194600 46 0 0.0 2.6 0.00 0.00 0.00 87 1005.7
20220929194057 46 360 0.0 1.7 0.00 0.00 0.00 87 1005.6
20220929193558 46 0 0.0 2.6 0.00 0.00 0.00 87 1005.5
20220929193113 46 0 0.9 2.6 0.00 0.00 0.00 87 1005.5
20220929192555 46 360 0.0 1.7 0.00 0.00 0.00 87 1005.5
20220929192056 46 360 0.0 1.7 0.00 0.00 0.00 86 1005.4
20220929191631 46 0 0.0 1.7 0.00 0.00 0.00 86 1005.3
20220929191058 47 360 0.0 2.6 0.00 0.00 0.00 86 1005.3
20220929190555 47 360 0.0 2.6 0.00 0.00 0.00 86 1005.4
20220929190102 47 360 0.0 2.6 0.00 0.00 0.00 85 1005.3
20220929185601 47 0 0.0 2.6 0.00 0.00 0.00 85 1005.3
20220929185056 47 360 0.9 2.6 0.00 0.00 0.00 85 1005.1
20220929184641 47 360 0.0 1.7 0.00 0.00 0.00 84 1005.2
20220929184058 47 0 0.0 0.9 0.00 0.00 0.00 84 1005.1
20220929183559 47 0 0.0 0.0 0.00 0.00 0.00 84 1005.0
20220929183117 48 0 0.0 3.5 0.00 0.00 0.00 84 1004.9
20220929182602 48 0 0.0 3.5 0.00 0.00 0.00 84 1004.9
20220929182056 48 360 0.9 3.5 0.00 0.00 0.00 83 1004.9
20220929181601 48 0 0.0 2.6 0.00 0.00 0.00 83 1004.9
20220929181057 48 360 0.0 3.5 0.00 0.00 0.00 83 1004.8
20220929180557 48 360 0.9 3.5 0.00 0.00 0.00 83 1004.8
20220929180106 49 360 0.0 1.7 0.00 0.00 0.00 81 1004.7
20220929175556 49 0 0.0 0.0 0.00 0.00 0.00 81 1004.6
20220929175100 49 0 0.0 0.0 0.00 0.00 0.00 81 1004.7
20220929174559 50 0 0.0 0.0 0.00 0.00 0.00 80 1004.7
20220929174057 50 0 0.0 0.0 0.00 0.00 0.00 79 1004.6
20220929173556 51 0 0.0 0.0 0.00 0.00 0.00 79 1004.6
20220929173101 51 0 0.0 0.0 0.00 0.00 0.00 78 1004.5
20220929172556 51 0 0.0 0.0 0.00 0.00 0.00 78 1004.5
20220929172056 51 0 0.0 0.0 0.00 0.00 0.00 77 1004.5
20220929171650 52 0 0.0 0.0 0.00 0.00 0.00 77 1004.4
20220929171057 52 0 0.0 0.0 0.00 0.00 0.00 76 1004.3
20220929170558 53 0 0.0 0.0 0.00 0.00 0.00 75 1004.3
20220929170107 53 0 0.0 0.0 0.00 0.00 0.00 74 1004.3
20220929165557 54 0 0.0 0.0 0.00 0.00 0.00 73 1004.2
20220929165055 54 0 0.0 0.0 0.00 0.00 0.00 72 1004.2
20220929164602 54 0 0.0 0.0 0.00 0.00 0.00 72 1004.1
20220929164057 55 0 0.0 0.0 0.00 0.00 0.00 71 1004.1
20220929163555 55 0 0.0 0.9 0.00 0.00 0.00 70 1004.1
20220929163101 55 0 0.0 1.7 0.00 0.00 0.00 70 1004.0
20220929162557 55 0 0.0 1.7 0.00 0.00 0.00 69 1003.9
20220929162054 55 215 0.0 1.7 0.00 0.00 0.00 69 1003.9
20220929161559 55 0 0.0 2.6 0.00 0.00 0.00 68 1003.8
20220929161054 55 0 0.0 2.6 0.00 0.00 0.00 68 1003.8
20220929160554 55 215 0.0 2.6 0.00 0.00 0.00 67 1003.7
20220929160130 55 0 0.0 2.6 0.00 0.00 0.00 67 1003.6
20220929155554 55 0 0.0 3.5 0.00 0.00 0.00 66 1003.5
20220929155054 55 0 0.0 3.5 0.00 0.00 0.00 66 1003.5
20220929154618 55 215 0.9 3.5 0.00 0.00 0.00 66 1003.5
20220929154054 56 215 0.0 3.5 0.00 0.00 0.00 66 1003.4
20220929153555 56 0 0.0 3.5 0.00 0.00 0.00 65 1003.4
20220929153104 56 0 0.9 4.3 0.00 0.00 0.00 65 1003.4
20220929152556 56 236 0.9 4.3 0.00 0.00 0.00 65 1003.4
20220929152055 56 232 1.7 6.1 0.00 0.00 0.00 66 1003.4